Location: Beaver Brook Trail
(44.0290°N, 71.8137°W)
Time: 23:16:47
(UTC+00:00)

Altair - Pass Details

Date: 08 November 2024
Orbit: 1501 x 1683 km, 47.2° (Epoch: 03 December)

Event Time Altitude Azimuth Distance (km) Brightness Sun altitude
Rises 23:00:14 0° 294° (WNW) 4,647 11.0 -16.8°
Reaches altitude 10° 23:03:23 10° 289° (WNW) 3,674 10.5 -17.4°
Maximum altitude 23:11:58 45° 220° (SW) 2,005 8.4 -18.9°
Drops below altitude 10° 23:20:48 10° 152° (SSE) 3,773 9.3 -20.5°
Sets 23:24:06 0° 146° (SSE) 4,781 9.8 -21.1°
